Showing default

LKW-3, 43146

Orbit data source: Space-Track

LKW-3, 43146 is a Chinese payload satellite in SSO that was launched on Sat, 13 Jan 2018 UTC via a CHANG ZHENG 2D launch vehicle from the Jiuquan Satellite Launch Center, China (JSC). Payload-class satellites include a variety of spacecraft equipped with specific instruments for various scientific and technological missions. These include communications satellites like Starlink; space stations such as the ISS; scientific satellites like the Hubble; Earth observation satellites from companies like Planet Labs, Umbra, and HawkEye 360; GPS; miniature CubeSats for education and research; and military/defense satellites.

Loading next visibility...
Identifier
43146, 2018-006A
Orbit
SSO
Country
Flag of CNCN / PRC
Related business
Manufacturer
CAST?
Mission
Operational Defense Imaging
Bus & Motor
LKW, Unknown motor
Mass
~2,000 kg wet, ~2,000 kg dry
Launch date (UTC)
2018-01-13 (8 years ago)
Launch vehicle
CHANG ZHENG 2D
Launch site
Jiuquan Satellite Launch Center, China (JSC)
Object type
Payload
Rocket body
Debris
Shape & HBR
Hex Cyl + 3 Pan, 5.0 m
Radar Cross Section
8.135 m², Large (>1 m²)

Expand to show TLE details & history
Last TLE update: 17 hours ago

TLE from 17 hours ago
0 LKW-3
1 43146U 18006A   25259.68642009  .00011331  00000-0  41854-3 0  9995
2 43146  97.6298  46.5693 0003450 179.0027 181.1219 15.27907016426847
Epoch: 2025-09-16T16:28Z
TLE epoch observation values (Epoch: 2025-09-16T16:28:26.695Z)
Latitude
-0.00007°
Longitude
163.58492°
Altitude
487.531 km
Speed
7.62 km/s
True Right ascension
03h 06m 16s
True Declination
0° 00' 00"
Sunlit
Object was in full shadow at epoch
Visualization orbit readout
Latitude
Unknown
Longitude
Unknown
Altitude
Unknown
Speed
Unknown
Apparent Right ascension
Unknown
Apparent Declination
Unknown
Sunlit
N/A
Visualization observer readout
Local Sidereal Time
01:51:46
Azimuth
Unknown
Elevation
Unknown
Doppler factor
Unknown
Orbital elements
Apogee altitude
481.401 km
Perigee altitude
476.669 km
Semi-major axis
6,857.172 km
Eccentricity
0.00035
Inclination
97.6298°
RAAN
46.5693°
Arg. of periapsis
179.0027°
True anomaly
181.12113°
Mean anomaly
181.1219°
Eccentric anomaly
181.12151°
Mean motion
3.82231 °/min
Orbital period
94.18 mins
BSTAR
0.00041854
Loading maneuver chart data...
Computing Atmospheric mass density...
Loading historical data...
Loading historical data...
Loading historical data...
Loading historical data...
Loading historical data...
Loading historical data...
Loading historical data...

Documentation

Showing up to 5 results
|